Weather History for KGPT - May, 2013

Change the Weather History Date:

Thursday, May 23, 2013

  Actual Average Record
Temperature  
Mean Temperature 78 °F -  
Max Temperature 87 °F 85 °F 94 °F (1972)
Min Temperature 69 °F 66 °F 48 °F (2001)
Cooling Degree Days 13    
Growing Degree Days 28 (Base 50)    
Moisture  
Dew Point 70 °F    
Average Humidity 75    
Maximum Humidity 90    
Minimum Humidity 61    
Precipitation  
Precipitation 0.00 in - - ()
Sea Level Pressure  
Sea Level Pressure 30.01 in    
Wind  
Wind Speed 2 mph (South)    
Max Wind Speed 10 mph    
Max Gust Speed -    
Visibility 10 miles    
Events      
Averages and records for this station are not official NWS values.
T = Trace of Precipitation, MM = Missing Value Source: NWS Daily Summary

Daily Weather History Graph

Daily Weather History Graph

Search for Another Location

Airport or City:

Trip Planner

Search our weather history database for the weather conditions in past years. The results will help you decide how hot, cold, wet, or windy it might be!

Date:

Astronomy

May. 23, 2013 Rise Set
Actual Time 5:57 AM CDT 7:48 PM CDT
Civil Twilight 5:30 AM CDT 8:15 PM CDT
Nautical Twilight 4:58 AM CDT 8:47 PM CDT
Astronomical Twilight 4:24 AM CDT 9:22 PM CDT
Moon 6:25 PM CDT (5/23) 4:35 AM CDT (5/23)
Length of Visible Light 14h 44m
Length of Day
13h 51m
Waxing Gibbous, 97% of the Moon is Illuminated
May 23
Waxing Gibbous
May 24
Full
May 31
Last Quarter
Jun 8
New
Jun 16
First Quarter

Hourly Weather History & Observations

Time (CDT) Temp. Heat Index Dew Point Humidity Pressure Visibility Wind Dir Wind Speed Gust Speed Precip Events Conditions
12:53 AM 71.1 °F - 66.9 °F 87% 29.96 in 8.0 mi Calm Calm - N/A   Clear
1:53 AM 70.0 °F - 66.9 °F 90% 29.95 in 10.0 mi Calm Calm - N/A   Clear
2:53 AM 69.1 °F - 66.0 °F 90% 29.95 in 10.0 mi Calm Calm - N/A   Clear
3:53 AM 69.1 °F - 66.0 °F 90% 29.97 in 9.0 mi Calm Calm - N/A   Clear
4:53 AM 69.1 °F - 66.0 °F 90% 29.97 in 8.0 mi Calm Calm - N/A   Clear
5:53 AM 69.1 °F - 66.0 °F 90% 29.99 in 9.0 mi Calm Calm - N/A   Clear
6:53 AM 70.0 °F - 66.9 °F 90% 30.02 in 9.0 mi Calm Calm - N/A   Clear
7:53 AM 75.9 °F - 70.0 °F 82% 30.04 in 10.0 mi Calm Calm - N/A   Mostly Cloudy
8:53 AM 80.1 °F 83.8 °F 72.0 °F 76% 30.05 in 10.0 mi Calm Calm - N/A   Mostly Cloudy
9:53 AM 81.0 °F 84.9 °F 71.1 °F 72% 30.05 in 10.0 mi Calm Calm - N/A   Overcast
10:53 AM 82.9 °F 87.0 °F 70.0 °F 65% 30.05 in 10.0 mi SSE 4.6 mph - N/A   Mostly Cloudy
11:51 AM 82.4 °F 87.2 °F 71.6 °F 70% 30.05 in 10.0 mi SE 6.9 mph - N/A   Scattered Clouds
11:53 AM 82.9 °F 88.0 °F 72.0 °F 69% 30.05 in 10.0 mi SSE 6.9 mph - N/A   Scattered Clouds
12:53 PM 84.9 °F 90.1 °F 71.1 °F 63% 30.04 in 10.0 mi Variable 3.5 mph - N/A   Clear
1:53 PM 86.0 °F 92.2 °F 72.0 °F 63% 30.04 in 8.0 mi South 8.1 mph - N/A   Clear
2:53 PM 87.1 °F 93.6 °F 72.0 °F 61% 30.02 in 10.0 mi Variable 6.9 mph - N/A   Clear
3:53 PM 86.0 °F 91.5 °F 71.1 °F 61% 30.01 in 10.0 mi SSW 5.8 mph - N/A   Clear
4:53 PM 84.9 °F 89.4 °F 70.0 °F 61% 29.99 in 10.0 mi South 10.4 mph - N/A   Clear
5:53 PM 84.9 °F 90.1 °F 71.1 °F 63% 29.98 in 10.0 mi South 5.8 mph - N/A   Clear
6:53 PM 82.9 °F 88.0 °F 72.0 °F 69% 29.99 in 10.0 mi SW 4.6 mph - N/A   Clear
7:53 PM 82.0 °F 86.7 °F 72.0 °F 71% 30.00 in 10.0 mi Variable 4.6 mph - N/A   Clear
8:12 PM 82.4 °F 87.2 °F 71.6 °F 70% 30.00 in 10.0 mi Calm Calm - N/A   Partly Cloudy
8:53 PM 82.0 °F 86.3 °F 71.1 °F 69% 30.02 in 10.0 mi Calm Calm - N/A   Scattered Clouds
9:53 PM 81.0 °F 85.2 °F 72.0 °F 74% 30.02 in 10.0 mi Calm Calm - N/A   Scattered Clouds
10:53 PM 80.1 °F 83.8 °F 72.0 °F 76% 30.03 in 10.0 mi Calm Calm - N/A   Scattered Clouds
11:53 PM 78.1 °F - 73.0 °F 84% 30.04 in 10.0 mi Calm Calm - N/A   Clear